When you browse on this site, cookies collect data to enhance your experience and personalize the content and advertising you see.
Visit our Privacy Policy to learn more. By continuing to use the site, you agree to this use of cookies and data.
  • En España
  • Lista de países
  • Para 7 días
  • Temperatura del agua
  • El tiempo en el mapa
  • Informadores
  • user-avatar
    Iniciar sesión

    Tiempo cada hora La Línea de la Concepción

    Hoy, 31 Marzo, Martes

    Tiempo Temperatura Precipitaciones Viento Presión Humedad
    00:00 +13°C° 0 mm 3 mps 754 mmHg 93%
    01:00 +13°C° 2.1 mm 4 mps 753 mmHg 94%
    02:00 +13°C° 2.1 mm 4 mps 753 mmHg 94%
    03:00 +14°C° 2.1 mm 4 mps 752 mmHg 95%
    04:00 +13°C° 1 mm 5 mps 753 mmHg 94%
    05:00 +13°C° 1 mm 6 mps 753 mmHg 94%
    06:00 +13°C° 0 mm 6 mps 753 mmHg 94%
    07:00 +14°C° 0.7 mm 6 mps 753 mmHg 93%
    08:00 +15°C° 0.7 mm 6 mps 753 mmHg 91%
    09:00 +15°C° 0.7 mm 7 mps 754 mmHg 89%
    10:00 +16°C° 0.8 mm 6 mps 754 mmHg 86%
    11:00 +17°C° 0.8 mm 6 mps 754 mmHg 84%
    12:00 +17°C° 0 mm 5 mps 754 mmHg 83%
    13:00 +17°C° 1 mm 6 mps 754 mmHg 83%
    14:00 +17°C° 1 mm 6 mps 754 mmHg 83%
    15:00 +17°C° 1 mm 6 mps 754 mmHg 83%
    16:00 +16°C° 0.7 mm 6 mps 754 mmHg 85%
    17:00 +16°C° 0.7 mm 5 mps 755 mmHg 88%
    18:00 +15°C° 0.7 mm 5 mps 755 mmHg 90%
    19:00 +14°C° 0.6 mm 5 mps 756 mmHg 91%
    20:00 +13°C° 0.6 mm 5 mps 757 mmHg 92%
    21:00 +13°C° 0.6 mm 5 mps 757 mmHg 93%
    22:00 +12°C° 0.5 mm 4 mps 758 mmHg 93%
    23:00 +12°C° 0.5 mm 4 mps 758 mmHg 93%

    Mañana, 1 Abril, Miércoles

    Tiempo Temperatura Precipitaciones Viento Presión Humedad
    00:00 +12°C° 0.5 mm 4 mps 758 mmHg 93%
    01:00 +12°C° 0 mm 3 mps 758 mmHg 91%
    02:00 +11°C° 0 mm 3 mps 758 mmHg 90%
    03:00 +12°C° 0 mm 2 mps 758 mmHg 89%
    04:00 +12°C° 0 mm 2 mps 758 mmHg 89%
    05:00 +12°C° 0 mm 2 mps 758 mmHg 89%
    06:00 +13°C° 0 mm 2 mps 758 mmHg 89%
    07:00 +14°C° 0.2 mm 2 mps 759 mmHg 88%
    08:00 +14°C° 0.2 mm 2 mps 759 mmHg 87%
    09:00 +15°C° 0.2 mm 2 mps 760 mmHg 85%
    10:00 +16°C° 0.1 mm 2 mps 760 mmHg 78%
    11:00 +17°C° 0.1 mm 3 mps 760 mmHg 71%
    12:00 +18°C° 0.1 mm 4 mps 760 mmHg 64%
    13:00 +17°C° 0 mm 5 mps 759 mmHg 63%
    14:00 +16°C° 0 mm 6 mps 759 mmHg 62%
    15:00 +16°C° 0 mm 7 mps 759 mmHg 61%
    16:00 +15°C° 0.1 mm 7 mps 759 mmHg 67%
    17:00 +14°C° 0.1 mm 6 mps 759 mmHg 73%
    18:00 +13°C° 0.1 mm 6 mps 759 mmHg 80%
    19:00 +13°C° 0 mm 5 mps 760 mmHg 82%
    20:00 +12°C° 0 mm 5 mps 760 mmHg 84%
    21:00 +11°C° 0 mm 4 mps 761 mmHg 87%
    22:00 +11°C° 0 mm 4 mps 761 mmHg 87%
    23:00 +11°C° 0 mm 4 mps 760 mmHg 87%

    Pasado mañana, 2 Abril, Jueves

    Tiempo Temperatura Precipitaciones Viento Presión Humedad
    00:00 +10°C° 0 mm 4 mps 760 mmHg 88%
    01:00 +11°C° 0.1 mm 4 mps 760 mmHg 88%
    02:00 +11°C° 0.1 mm 4 mps 759 mmHg 89%
    03:00 +11°C° 0.1 mm 4 mps 759 mmHg 89%
    04:00 +10°C° 0.2 mm 5 mps 758 mmHg 90%
    05:00 +10°C° 0.2 mm 6 mps 758 mmHg 90%
    06:00 +11°C° 0.2 mm 7 mps 757 mmHg 91%
    07:00 +11°C° 2.4 mm 7 mps 757 mmHg 90%
    08:00 +11°C° 2.4 mm 6 mps 758 mmHg 90%
    09:00 +11°C° 2.4 mm 6 mps 758 mmHg 89%
    10:00 +13°C° 0.5 mm 6 mps 758 mmHg 87%
    11:00 +12°C° 0.5 mm 7 mps 758 mmHg 85%
    12:00 +12°C° 0.5 mm 7 mps 758 mmHg 83%
    13:00 +12°C° 0.4 mm 8 mps 758 mmHg 80%
    14:00 +13°C° 0.4 mm 8 mps 758 mmHg 76%
    15:00 +13°C° 0.4 mm 8 mps 758 mmHg 73%
    16:00 +13°C° 0.1 mm 8 mps 758 mmHg 75%
    17:00 +12°C° 0.1 mm 7 mps 758 mmHg 77%
    18:00 +12°C° 0.1 mm 7 mps 758 mmHg 79%
    19:00 +11°C° 0.1 mm 6 mps 759 mmHg 82%
    20:00 +11°C° 0.1 mm 6 mps 759 mmHg 85%
    21:00 +10°C° 0.1 mm 5 mps 760 mmHg 88%
    22:00 +10°C° 0 mm 5 mps 760 mmHg 88%
    23:00 +10°C° 0 mm 4 mps 760 mmHg 88%

    3 Abril, Viernes

    Tiempo Temperatura Precipitaciones Viento Presión Humedad
    00:00 +10°C° 0 mm 4 mps 760 mmHg 89%
    01:00 +10°C° 0 mm 4 mps 760 mmHg 89%
    02:00 +8°C° 0 mm 4 mps 759 mmHg 88%
    03:00 +8°C° 0 mm 4 mps 759 mmHg 88%
    04:00 +8°C° 0 mm 4 mps 759 mmHg 88%
    05:00 +8°C° 0 mm 4 mps 759 mmHg 88%
    06:00 +8°C° 0 mm 4 mps 759 mmHg 88%
    07:00 +11°C° 0 mm 4 mps 760 mmHg 83%
    08:00 +13°C° 0 mm 3 mps 760 mmHg 77%
    09:00 +16°C° 0 mm 3 mps 760 mmHg 71%
    10:00 +18°C° 0 mm 3 mps 760 mmHg 66%
    11:00 +19°C° 0 mm 3 mps 760 mmHg 62%
    12:00 +20°C° 0 mm 3 mps 760 mmHg 57%
    13:00 +20°C° 0 mm 3 mps 760 mmHg 60%
    14:00 +20°C° 0 mm 3 mps 759 mmHg 62%
    15:00 +19°C° 0 mm 3 mps 759 mmHg 64%
    16:00 +18°C° 0 mm 3 mps 759 mmHg 67%
    17:00 +17°C° 0 mm 4 mps 758 mmHg 70%
    18:00 +15°C° 0 mm 4 mps 758 mmHg 73%
    19:00 +14°C° 0 mm 5 mps 759 mmHg 76%
    20:00 +13°C° 0 mm 5 mps 759 mmHg 79%
    21:00 +13°C° 0 mm 6 mps 759 mmHg 82%
    22:00 +12°C° 0 mm 7 mps 759 mmHg 80%
    23:00 +13°C° 0 mm 8 mps 759 mmHg 78%

    4 Abril, Sábado

    Tiempo Temperatura Precipitaciones Viento Presión Humedad
    00:00 +13°C° 0 mm 10 mps 759 mmHg 76%
    01:00 +13°C° 0 mm 10 mps 759 mmHg 78%
    02:00 +13°C° 0 mm 10 mps 758 mmHg 80%
    03:00 +13°C° 0 mm 11 mps 758 mmHg 82%
    04:00 +13°C° 0 mm 11 mps 758 mmHg 82%
    05:00 +13°C° 0 mm 11 mps 758 mmHg 82%
    06:00 +13°C° 0 mm 11 mps 758 mmHg 82%
    07:00 +13°C° 0 mm 11 mps 758 mmHg 81%
    08:00 +14°C° 0 mm 11 mps 758 mmHg 80%
    09:00 +14°C° 0 mm 11 mps 758 mmHg 79%
    10:00 +14°C° 0.1 mm 11 mps 759 mmHg 78%
    11:00 +16°C° 0.1 mm 11 mps 759 mmHg 78%
    12:00 +16°C° 0.1 mm 10 mps 759 mmHg 77%
    13:00 +14°C° 0.3 mm 10 mps 759 mmHg 81%
    14:00 +15°C° 0.3 mm 9 mps 759 mmHg 85%
    15:00 +13°C° 0.3 mm 9 mps 758 mmHg 89%
    16:00 +13°C° 0.2 mm 8 mps 759 mmHg 90%
    17:00 +14°C° 0.2 mm 7 mps 759 mmHg 90%
    18:00 +14°C° 0.2 mm 6 mps 759 mmHg 91%
    19:00 +14°C° 0 mm 6 mps 759 mmHg 90%
    20:00 +14°C° 0 mm 6 mps 760 mmHg 89%
    21:00 +14°C° 0 mm 6 mps 760 mmHg 88%
    22:00 +14°C° 0 mm 7 mps 760 mmHg 89%
    23:00 +14°C° 0 mm 7 mps 760 mmHg 90%

    5 Abril, Domingo

    Tiempo Temperatura Precipitaciones Viento Presión Humedad
    00:00 +14°C° 0 mm 7 mps 760 mmHg 90%
    01:00 +14°C° 0 mm 7 mps 760 mmHg 91%
    02:00 +14°C° 0 mm 7 mps 760 mmHg 91%
    03:00 +14°C° 0 mm 6 mps 760 mmHg 92%
    04:00 +14°C° 0 mm 6 mps 760 mmHg 92%
    05:00 +14°C° 0 mm 6 mps 760 mmHg 92%
    06:00 +14°C° 0 mm 5 mps 760 mmHg 92%
    07:00 +15°C° 0 mm 5 mps 760 mmHg 91%
    08:00 +15°C° 0 mm 5 mps 761 mmHg 89%
    09:00 +16°C° 0 mm 5 mps 761 mmHg 87%
    10:00 +16°C° 0 mm 5 mps 761 mmHg 85%
    11:00 +17°C° 0 mm 5 mps 761 mmHg 82%
    12:00 +19°C° 0 mm 5 mps 762 mmHg 80%
    13:00 +19°C° 0 mm 4 mps 761 mmHg 80%
    14:00 +19°C° 0 mm 4 mps 761 mmHg 80%
    15:00 +19°C° 0 mm 4 mps 761 mmHg 80%
    16:00 +18°C° 0 mm 3 mps 761 mmHg 83%
    17:00 +17°C° 0 mm 3 mps 761 mmHg 86%
    18:00 +17°C° 0 mm 3 mps 761 mmHg 89%
    19:00 +16°C° 0 mm 2 mps 762 mmHg 91%
    20:00 +16°C° 0 mm 2 mps 762 mmHg 93%
    21:00 +15°C° 0 mm 2 mps 763 mmHg 95%
    22:00 +15°C° 0 mm 2 mps 763 mmHg 95%
    23:00 +15°C° 0 mm 2 mps 763 mmHg 95%
    Mostrar más